Location: Asheville, NC
(35.6000°N, 82.5500°W)
Time: 06:27:27

UWE-3 - Pass Details

Date: 16 March 2018
Orbit: 585 x 685 km, 97.6° (Epoch: 16 March)

Event Time Altitude Azimuth Distance (km) Brightness Sun altitude
Rises 20:53:14 0° 189° (S) 2,942 ? -15.9°
Reaches altitude 10° 20:55:40 10° 200° (SSW) 2,020 ? -16.4°
Maximum altitude 20:59:33 31° 263° (W) 1,103 ? -17.2°
Drops below altitude 10° 21:03:23 10° 326° (NW) 1,977 ? -17.9°
Sets 21:05:45 0° 336° (NNW) 2,870 ? -18.4°
